Hourly Weather Roundup
Issued by NWS Central Illinois

Home | Current Version | Previous Version | Text Only | Print | Product List | Glossary On
Versions: 1 2 3 4 5 6 7 8 9 10 11 12 13 14 15 16 17 18 19 20 21 22 23 24 25 26 27 28 29 30 31 32 33 34 35 36 37 38 39 40 41 42 43 44 45 46 47 48 49 50
000
NZUS43 KILX 280010
HWRILX

AREA WEATHER ROUNDUP
NATIONAL WEATHER SERVICE, LINCOLN IL
700 PM CDT WED JUL 27 2016


CITY           SKY/WX    TMP DP  RH WIND       PRES   REMARKS
BLOOMINGTON    MOSUNNY   81  71  71 SE8       29.93F HX  85
6HR MIN TEMP:  81; 6HR MAX TEMP:  85;

CHAMPAIGN      MOSUNNY   82  71  69 E5        29.94S HX  86
6HR MIN TEMP:  80; 6HR MAX TEMP:  87;

DANVILLE       SUNNY     82  71  70 CALM      29.91S HX  86
6HR MIN TEMP:  81; 6HR MAX TEMP:  86;

DECATUR        CLOUDY    83  74  74 E5        29.92F HX  89
6HR MIN TEMP:  82; 6HR MAX TEMP:  87;

EFFINGHAM      MOSUNNY   83  76  80 CALM      29.93S HX  92
FLORA          CLOUDY    85  78  79 E3        29.92R HX  97
GALESBURG      SUNNY     84  70  62 CALM      29.91S HX  88
JACKSONVILLE   SUNNY     83  76  79 E6        29.89F HX  91
6HR MIN TEMP:  83; 6HR MAX TEMP:  86;

LACON          MOSUNNY   83  70  66 E3        29.89F HX  87
6HR MIN TEMP:  83; 6HR MAX TEMP:  86;

LAWRENCEVILLE  CLOUDY    82  75  79 S6        29.92R HX  89
6HR MIN TEMP:  82; 6HR MAX TEMP:  89; 6HR PCP: TRACE;

LITCHFIELD       N/A    N/A N/A N/A MISG        N/A
$$


CITY           SKY/WX    TMP DP  RH WIND       PRES   REMARKS
LINCOLN        SUNNY     84  75  73 CALM      29.91S HX  92
6HR MIN TEMP:  84; 6HR MAX TEMP:  88;

MACOMB         SUNNY     83  75  76 E3        29.91F HX  90
MATTOON        MOSUNNY   81  72  74 SE3       29.92S HX  85
MT CARMEL AP   CLOUDY    80  74  81 S3        29.91S HX  85
6HR MIN TEMP:  80; 6HR MAX TEMP:  86;

OLNEY-NOBLE AP CLOUDY    82  77  83 E3        29.92S HX  91
PARIS          CLOUDY    82  73  74 CALM      29.93R HX  87
6HR MIN TEMP:  82; 6HR MAX TEMP:  87;

PEORIA         MOSUNNY   84  71  65 SE7       29.90F HX  89
6HR MIN TEMP:  83; 6HR MAX TEMP:  88;

PONTIAC        SUNNY     83  74  74 CALM      29.93F HX  90
RANTOUL        NOT AVBL
ROBINSON       PTSUNNY   82  74  77 E5        29.92R HX  88
6HR MIN TEMP:  82; 6HR MAX TEMP:  87;

SPRINGFIELD    SUNNY     84  73  69 SE6       29.90F HX  90
6HR MIN TEMP:  79; 6HR MAX TEMP:  87; 6HR PCP:  0.04;

TAYLORVILLE    MOSUNNY   82  74  78 MISG      29.92S HX  88
$$

...REGIONAL REPORTS...


CITY           SKY/WX    TMP DP  RH WIND       PRES   REMARKS
CHICAGO O`HARE CLOUDY    83  62  49 E9        29.91F HX  84
KANKAKEE       SUNNY     85  69  58 S3        29.93F HX  88
MOLINE         MOSUNNY   85  69  58 SW5       29.90S HX  89
MOUNT STERLING PTSUNNY   82  76  82 SE5       29.88F HX  89
MOUNT VERNON   MOSUNNY   84  72  65 MISG      29.91R HX  89
PITTSFIELD     SUNNY     85  78  79 E3        29.90F HX  97
QUINCY         SUNNY     87  72  60 SW3       29.88F HX  93
ROCKFORD       PTSUNNY   84  68  58 CALM      29.92F HX  87
$$


CITY           SKY/WX    TMP DP  RH WIND       PRES   REMARKS
BURLINGTON     SUNNY     84  74  71 NW3       29.90S HX  91
CEDAR RAPIDS   MOSUNNY   80  74  81 W6        29.91F HX  85
DES MOINES     PTSUNNY   84  67  56 W3        29.90F HX  86
KIRKSVILLE     PTSUNNY   88  69  53 NW7       29.92S HX  92
OTTUMWA        CLOUDY    81  70  69 CALM      29.89F HX  84
ST LOUIS       CLOUDY    87  71  58 S12       29.90R HX  93
$$


CITY           SKY/WX    TMP DP  RH WIND       PRES   REMARKS
TERRE HAUTE    SUNNY     84  74  71 CALM      29.91F HX  91
EVANSVILLE     CLOUDY    77  74  90 CALM      29.93R
INDIANAPOLIS   PTSUNNY   84  66  54 NW8       29.94F HX  86
LAFAYETTE      CLOUDY    83  69  62 CALM      29.93S HX  86
MADISON        PTSUNNY   80  69  69 E7        29.92F HX  83
MILWAUKEE      PTSUNNY   78  66  66 NE10      29.94F HX  80
$$





USA.gov is the U.S. government's official web portal to all federal, state and local government web resources and services.